TimeAST,TemperatureF,Dew PointF,Humidity,Sea Level PressureIn,VisibilityMPH,Wind Direction,Wind SpeedMPH,Gust SpeedMPH,PrecipitationIn,Events,Conditions,WindDirDegrees,DateUTC
1:00 AM,82.4,78.8,89,29.89,6.2,ESE,17.3,-,N/A,,Partly Cloudy,110,2013-10-04 05:00:00
2:00 AM,82,79,87,29.88,9,ESE,11.5,,,,,110,2013-10-04 06:00:00
2:00 AM,82.4,78.8,89,29.86,6.2,ESE,11.5,-,N/A,,Scattered Clouds,110,2013-10-04 06:00:00
3:00 AM,82.4,78.8,89,29.86,6.2,ESE,12.7,-,N/A,,Mostly Cloudy,120,2013-10-04 07:00:00
4:00 AM,82.4,77.0,84,29.86,6.2,ESE,9.2,-,N/A,,Mostly Cloudy,120,2013-10-04 08:00:00
5:00 AM,82,78,83,29.89,11,ESE,9.2,,,,Widespread Dust,120,2013-10-04 09:00:00
5:00 AM,82.4,77.0,84,29.89,6.2,ESE,9.2,-,N/A,,Mostly Cloudy,120,2013-10-04 09:00:00
6:00 AM,82.4,78.8,89,29.89,6.2,SE,6.9,-,N/A,,Mostly Cloudy,130,2013-10-04 10:00:00
7:00 AM,84.2,78.8,84,29.92,6.2,SE,13.8,-,N/A,,Mostly Cloudy,140,2013-10-04 11:00:00
8:00 AM,84,79,80,29.95,9,SE,12.7,,,,Widespread Dust,130,2013-10-04 12:00:00
8:00 AM,84.2,78.8,84,29.95,6.2,SE,12.7,-,N/A,,Mostly Cloudy,130,2013-10-04 12:00:00
9:00 AM,86.0,80.6,84,29.95,6.2,SE,13.8,-,N/A,,Mostly Cloudy,140,2013-10-04 13:00:00
10:00 AM,87.8,78.8,75,29.98,6.2,SSE,13.8,-,N/A,,Mostly Cloudy,150,2013-10-04 14:00:00
11:00 AM,87,79,72,29.96,12,SSE,13.8,,,,Partly Cloudy,150,2013-10-04 15:00:00
11:00 AM,87.8,78.8,75,29.95,6.2,SSE,13.8,-,N/A,,Mostly Cloudy,150,2013-10-04 15:00:00
12:00 PM,87.8,80.6,79,29.92,6.2,SSE,15.0,-,N/A,,Mostly Cloudy,150,2013-10-04 16:00:00
1:00 PM,87.8,78.8,75,29.89,6.2,SSE,15.0,-,N/A,,Mostly Cloudy,150,2013-10-04 17:00:00
2:00 PM,86.0,78.8,79,29.89,6.2,SE,15.0,-,N/A,,Mostly Cloudy,140,2013-10-04 18:00:00
2:33 PM,78.8,77.0,94,29.89,3.1,ESE,13.8,-,N/A,Rain,Rain Showers,120,2013-10-04 18:33:00
3:00 PM,80.6,77.0,89,29.86,6.2,SSE,6.9,-,N/A,,Mostly Cloudy,150,2013-10-04 19:00:00
4:00 PM,84.2,77.0,79,29.86,6.2,ESE,11.5,-,N/A,,Mostly Cloudy,120,2013-10-04 20:00:00
5:00 PM,83,77,78,29.88,11,ESE,11.5,,,,Widespread Dust,120,2013-10-04 21:00:00
5:00 PM,84.2,77.0,79,29.86,6.2,ESE,11.5,-,N/A,,Overcast,120,2013-10-04 21:00:00
6:00 PM,82.4,77.0,84,29.89,6.2,East,13.8,-,N/A,,Overcast,90,2013-10-04 22:00:00
7:00 PM,82.4,77.0,84,29.92,6.2,East,13.8,-,N/A,,Overcast,100,2013-10-04 23:00:00
8:00 PM,82,78,83,29.93,11,ESE,11.5,,,,Widespread Dust,120,2013-10-05 00:00:00
8:00 PM,82.4,77.0,84,29.92,6.2,ESE,11.5,-,N/A,,Mostly Cloudy,120,2013-10-05 00:00:00
9:00 PM,82.4,78.8,89,29.95,6.2,ESE,13.8,-,N/A,,Mostly Cloudy,120,2013-10-05 01:00:00
10:00 PM,82.4,77.0,84,29.95,6.2,ESE,11.5,-,N/A,,Mostly Cloudy,120,2013-10-05 02:00:00
11:00 PM,82.4,78.8,89,29.95,6.2,East,9.2,-,N/A,,Mostly Cloudy,100,2013-10-05 03:00:00